Location: ????
(31.1597°N, 45.6975°E)
Time: 19:04:18
(UTC+00:00)

Daily predictions for brighter satellites

Satellite Brightness Start Highest point End
(mag) Time Altitude Azimuth Time Altitude Azimuth Time Altitude Azimuth
Cosmos 1151 Rocket 4.3 16:06:12 10° SE 16:09:36 23° E 16:13:01 10° NE
Intercosmos 24 4.1 16:08:54 10° SSE 16:12:27 40° E 16:15:48 10° NNE
DMSP B5D2-2 4.2 16:10:12 10° NNE 16:15:31 89° ESE 16:20:48 10° SSW
YAOGAN 1 3.5 16:11:24 10° S 16:15:36 52° W 16:19:49 10° NNW
H-2A R/B 3.5 16:12:04 10° SSW 16:16:34 37° W 16:21:08 10° NNW
Mugunghwa Rocket 4.2 16:11:21 10° WSW 16:17:28 55° S 16:23:44 10° E
Cosmos 1242 Rocket 2.5 16:14:54 10° S 16:18:25 61° E 16:21:54 10° NNE
Cosmos 1745 Rocket 4.3 16:12:55 10° N 16:18:47 46° E 16:24:35 10° SSE
Cosmos 1689 Rocket 3.1 16:16:49 10° N 16:19:31 47° WNW 16:22:12 10° SSW
CZ-4C R/B 4.2 16:13:20 10° N 16:19:39 27° NE 16:26:34 10° ESE
OAO 3 Rocket 3.1 16:20:19 10° WSW 16:24:58 90° NW 16:29:38 10° ENE
USA 186 1.9 16:23:55 10° SE 16:26:08 32° ENE 16:28:17 10° N
GPS 2-04 Rocket1 3.8 16:25:13 10° WNW 16:29:12 43° N 16:33:09 10° ENE
BREEZE-M (TANK) 4.1 16:17:09 10° NW 16:30:21 60° SW 16:33:51 10° SSE
S3M 4.1 16:26:25 10° S 16:32:48 90° WNW 16:39:09 10° N
Okean-O 4.0 16:30:23 10° S 16:34:33 40° W 16:38:44 10° NNW
ARGOS 4.4 16:30:03 10° S 16:35:04 41° W 16:40:07 10° NNW
CZ-4 R/B 4.0 16:37:23 10° SW 16:40:22 20° W 16:43:19 10° NW
Cosmos 1782 2.9 16:36:34 10° S 16:40:27 55° E 16:44:21 10° NNE
DELTA 2 R/B (1) 3.7 16:36:41 10° WNW 16:42:13 67° SSW 16:46:36 16° SE
Cosmos 1933 3.9 16:39:37 10° SSW 16:43:36 61° W 16:47:35 10° N
Helios 1A Rocket 3.1 16:40:03 10° S 16:44:10 79° WSW 16:48:20 10° NNW
USA 267 3.5 16:40:15 14° ESE 16:45:55 62° NE 16:52:22 10° NW
Meteor 1-25 Rocket 4.3 16:41:57 10° N 16:47:47 69° E 16:53:32 10° SSE
CZ-2C R/B 1.7 16:44:50 10° SW 16:48:34 36° SSE 16:50:47 19° E
Cosmos 2315 Rocket 4.1 16:42:54 10° S 16:49:08 62° E 16:55:25 10° NNE
GEOS 3 Rocket 3.7 16:45:47 12° SSE 16:50:43 86° WSW 16:56:08 10° NNW
SJ-6B 2.7 16:49:37 13° SSE 16:53:00 73° ENE 16:56:59 10° N
Cosmos 1500 4.4 16:52:57 10° NNE 16:55:57 23° E 16:56:36 22° E
X-37B 0.8 16:53:16 10° NW 16:56:26 61° NE 16:57:48 29° ESE
Cosmos 1437 2.3 16:54:09 10° S 16:56:58 89° WNW 16:59:48 10° N
MOS 1-B Rocket 4.3 16:53:36 10° N 17:00:15 75° WNW 17:06:02 10° SSW
Cosmos 1515 Rocket 4.1 16:58:59 21° SSE 17:01:25 39° E 17:05:30 10° NNE
ERS-2 4.5 17:01:53 10° NNW 17:04:56 26° WNW 17:08:00 10° SW
MOS 1 4.3 17:02:09 18° SSE 17:06:24 65° ENE 17:12:01 10° N
Resurs 01 Rocket 2.6 17:06:25 25° ESE 17:07:44 30° ENE 17:11:36 10° NNE
Cosmos 773 Rocket 4.0 17:04:30 10° N 17:09:45 65° ENE 17:12:40 26° SSE
Cosmos 2082 Rocket 3.7 17:06:16 10° NNE 17:10:12 19° ENE 17:11:56 17° E
Cosmos 1943 Rocket 3.8 17:12:17 17° E 17:12:17 17° E 17:14:39 10° ENE
Cosmos 1328 Rocket 3.7 17:08:06 10° S 17:12:31 75° W 17:16:56 10° N
Cosmos 1633 Rocket 3.0 17:08:18 10° N 17:12:43 74° E 17:15:08 26° SSE
Milstar 3 4.3 16:52:42 10° WSW 17:13:15 76° S 17:22:10 15° E
Tianhe-1 3.6 17:15:20 10° WNW 17:17:50 22° NNW 17:20:21 10° NE
Meteor 2-17 Rocket 4.5 17:16:45 10° N 17:22:54 81° W 17:27:51 16° S
USA 305 4.4 17:19:47 10° NNW 17:23:22 25° NE 17:24:31 22° ENE
SPOT 3 Rocket 4.0 17:22:17 33° ESE 17:23:53 43° ENE 17:28:44 10° N
Landsat 7 4.5 17:23:04 33° E 17:24:03 37° ENE 17:28:23 10° N
Cosmos 2278 Rocket 3.4 17:21:32 10° SW 17:26:53 44° WNW 17:32:16 10° N
Cosmos 1470 Rocket 3.6 17:25:35 10° N 17:30:02 63° E 17:31:01 48° SE
OBJECT-B 3.0 17:29:01 13° SSW 17:31:10 23° W 17:33:50 10° NW
COSMOS 2406 3.2 17:26:23 10° NNW 17:32:01 63° ENE 17:33:57 40° SE
ATLAS 5 CENTAUR R/B 3.5 17:28:23 10° NW 17:34:13 42° WSW 17:39:08 17° S
Cosmos 1271 Rocket 2.7 17:34:31 64° SE 17:34:50 68° E 17:38:49 10° NNE
CZ-2C R/B 3.6 17:31:04 10° NNE 17:35:36 65° ESE 17:36:47 46° SSE
SJ 16-02 2.5 17:35:23 10° SW 17:39:35 43° WNW 17:43:49 10° N
USA 306 3.8 17:39:10 10° NNW 17:43:07 36° NE 17:43:26 35° NE
BREEZE-M DEB (TANK) 3.0 17:38:05 10° NW 17:43:27 51° NNE 17:43:27 51° NNE
Cosmos 1933 Rocket 3.7 17:39:29 10° N 17:43:38 55° ENE 17:43:38 55° ENE
Meteor 2-6 Rocket 4.3 17:39:53 16° SSW 17:44:15 73° W 17:49:46 10° N
NOSS 3-4 (A) 4.4 17:37:55 10° NNW 17:44:52 45° NE 17:47:40 34° ESE
NOSS 3-4 (C) 4.5 17:38:02 10° NNW 17:44:58 45° NE 17:47:46 33° ESE
IGS 5A 3.3 17:45:01 74° ESE 17:45:11 76° ENE 17:49:20 10° N
ISS -0.4 17:43:51 10° WNW 17:45:40 14° NNW 17:47:30 10° N
Ariane Rocket 3.7 17:44:06 24° SSW 17:46:55 49° W 17:51:49 10° NNW
Resurs 1-3 4.4 17:45:32 29° SSW 17:47:22 45° W 17:51:35 10° NNW
ARIANE 5 R/B 4.0 17:55:10 27° NE 17:55:10 27° NE 17:57:56 10° NNE
Iridium 4 Rocket 3.7 17:53:00 52° SSE 17:54:24 72° E 18:00:18 10° N
ATLAS 2AS CENTAUR R/B 3.8 17:51:44 10° N 17:57:51 30° NE 17:59:38 26° ENE
Cosmos 990 Rocket 3.9 17:57:35 45° SSW 17:59:14 87° WNW 18:04:31 10° NNE
Cosmos 1666 3.4 17:57:03 10° N 17:59:46 46° N 17:59:46 46° N
Meteor 1-27 Rocket 3.7 18:00:01 60° SE 18:00:54 69° E 18:06:46 10° NNE
Cosmos 1898 Rocket 3.4 18:01:17 70° SSE 18:01:46 77° ESE 18:07:06 10° NNE
Cosmos 1833 Rocket 2.9 17:58:13 10° NNW 18:03:47 65° WSW 18:05:04 50° SSW
Nadezhda 1 Rocket 3.9 18:06:25 59° SSE 18:07:32 73° E 18:13:45 10° N
OAO 3 Rocket 3.7 18:04:07 10° W 18:08:39 52° N 18:09:14 49° NNE
CZ-4C R/B 3.3 18:00:56 10° NW 18:08:44 67° WSW 18:12:05 40° S
GPS 2-04 Rocket1 3.5 18:04:48 10° WNW 18:08:03 52° NW 18:08:03 52° NW
Cosmos 2154 Rocket 4.2 18:05:12 10° N 18:11:19 51° E 18:11:23 51° E
USA 307 3.6 18:07:41 10° NW 18:11:06 51° N 18:11:06 51° N
Mugunghwa Rocket 4.1 18:06:43 10° W 18:12:49 55° S 18:12:49 55° S
Cosmos 158 Rocket 3.9 18:08:52 10° NNW 18:13:24 73° NNE 18:13:24 73° NNE
Cosmos 923 Rocket 4.4 18:09:54 10° N 18:14:35 52° NE 18:14:35 52° NE
Cosmos 2074 Rocket 3.9 18:10:21 10° N 18:16:41 89° W 18:17:43 65° S
Cosmos 2184 Rocket 3.8 18:11:34 10° N 18:17:46 90° SE 18:18:33 70° S
USA 308 4.0 18:21:30 10° NW 18:24:26 43° NW 18:24:26 43° NW
CZ-2C R/B 3.6 18:24:13 10° W 18:25:07 16° W 18:25:07 16° W
USA 267 4.5 18:27:36 26° SW 18:29:03 28° SW 18:34:31 10° WNW
Cosmos 2297 4.3 18:29:18 34° SW 18:31:31 54° WNW 18:37:05 10° N
Terra 3.4 18:33:24 27° NNE 18:33:24 27° NNE 18:36:00 10° N
GOES 2 Rocket 4.5 18:23:20 10° W 18:33:08 74° S 18:34:18 65° SE
Cosmos 1461 4.2 18:37:59 43° NW 18:37:59 43° NW 18:42:19 10° NNE
Cosmos 1610 Rocket 4.4 18:34:39 10° N 18:40:30 82° N 18:40:30 82° N
Meteor 1-11 Rocket 3.9 18:35:14 10° NNW 18:41:00 69° W 18:41:00 69° W
Resurs 01 Rocket 3.8 18:43:59 18° W 18:44:11 18° W 18:47:14 10° NW
SPOT 1/Viking Rocket 4.5 18:47:11 42° W 18:47:11 42° W 18:51:44 10° NNW
ERS-1 Rocket 3.8 18:49:27 47° N 18:49:27 47° N 18:52:59 10° NNW
Spot 2 Rocket 4.5 18:55:08 43° WNW 18:55:08 43° WNW 18:58:57 10° NNW
Cosmos 1943 Rocket 3.0 18:53:41 44° W 18:54:15 46° WNW 18:59:39 10° N
Cosmos 2082 Rocket 3.0 18:49:06 10° NNW 18:53:48 45° W 18:53:48 45° W
SPOT 5 4.0 19:03:13 45° NW 19:03:13 45° NW 19:06:55 10° NNW
Cosmos 2341 Rocket 4.4 19:07:45 10° N 19:12:49 59° N 19:12:49 59° N
Cosmos 2369 Rocket 3.3 19:17:03 41° N 19:17:03 41° N 19:20:49 10° NNE
ATLAS 2AS CENTAUR R/B 3.7 19:42:19 10° NW 19:47:04 37° WNW 19:47:04 37° WNW
Milstar 3 3.9 19:46:24 10° W 19:55:45 49° WSW 19:55:45 49° WSW
Cosmos 1980 Rocket 4.5 21:39:29 16° ENE 21:39:29 16° ENE 21:41:11 10° NE
COSMOS 2455 4.3 21:35:05 10° NNW 21:38:40 33° N 21:38:40 33° N
Cosmos 2227 Rocket 3.8 21:52:15 10° N 21:55:57 31° NE 21:55:57 31° NE
Cosmos 2297 Rocket 3.7 21:54:10 10° N 21:57:23 32° N 21:57:23 32° N
ADEOS II 3.8 22:18:23 10° NE 22:21:34 26° ENE 22:21:34 26° ENE
BREEZE-M DEB (TANK) 4.3 22:35:06 32° NNW 22:35:06 32° NNW 22:42:58 10° NE
Lacrosse 4 Rocket 3.9 22:37:55 19° N 22:37:55 19° N 22:39:23 10° N
Cosmos 2322 Rocket 4.4 22:40:54 15° ESE 22:41:32 15° E 22:44:36 10° ENE
Resurs 1-4 Rocket 3.2 22:37:01 10° N 22:40:19 39° N 22:40:19 39° N
Centaur D-1AR AC-39 4.4 22:46:22 18° ESE 22:46:22 18° ESE 22:49:36 10° ESE
CZ-2D R/B 3.1 22:39:52 10° N 22:43:21 41° N 22:43:21 41° N
NPP 4.4 22:45:48 10° N 22:49:38 47° N 22:49:38 47° N
USA 281 3.1 22:55:42 84° NNW 22:55:42 84° NNW 23:02:01 10° NNW
Cosmos 1140 Rocket 4.1 22:56:32 10° N 23:00:47 53° NNE 23:00:47 53° NNE
USA 215 3.3 22:55:29 10° SE 23:02:00 75° NE 23:08:31 10° NW
Meteor 1-24 Rocket 4.1 23:02:52 54° E 23:02:52 54° E 23:07:55 10° NNE
SL-16 R/B 2.6 23:03:39 70° NW 23:03:39 70° NW 23:09:13 10° NNW
CENTAUR R/B 3.6 23:05:48 28° ESE 23:06:15 29° ESE 23:11:27 10° NE
Cosmos 1697 Rocket 4.3 23:07:56 23° NW 23:07:56 23° NW 23:11:26 10° N
Cosmos 1725 Rocket 4.3 23:11:59 10° NNW 23:17:03 50° WNW 23:17:03 50° WNW
IRS-1D 3.6 23:14:05 10° NNE 23:19:05 78° NNE 23:19:05 78° NNE
Cosmos 1980 Rocket 3.1 23:21:15 37° NW 23:21:15 37° NW 23:25:50 10° N
Cosmos 2233 Rocket 3.8 23:17:28 10° N 23:23:39 81° W 23:23:55 79° SW
Meteor 2-5 Rocket 3.9 23:33:30 57° WNW 23:33:30 57° WNW 23:38:45 10° N
CZ-4B R/B 4.3 23:31:48 10° NNE 23:36:41 46° E 23:38:12 36° SE
Cosmos 1190 Rocket 4.2 23:31:55 10° NNW 23:36:16 57° NW 23:36:16 57° NW
IDEFIX/ARIANE 42P 2.5 23:33:44 10° NNE 23:39:01 84° ESE 23:39:39 70° S
ARIANE 5 R/B 3.2 23:36:09 10° NNE 23:41:03 47° E 23:42:36 35° SE
Cosmos 2227 Rocket 4.2 23:36:46 10° NW 23:37:44 14° WNW 23:37:44 14° WNW
Atlas Centaur 2 2.8 23:42:54 49° SW 23:45:06 69° SSE 23:52:09 10° E
OAO 2 Rocket 3.9 23:47:52 34° WNW 23:49:57 57° N 23:55:11 10° E
GP-B 4.3 23:47:51 10° NNW 23:50:40 30° NW 23:50:40 30° NW
